GFSFLT1_850_thetae_198.txt.gz
Theta_e
339 343 343 343 346 344 344 343 344 344 343 344 344 344 342 340 341 342 341 342 338 335 337 337 336 336 336 337 338 338 336 338 342
339 342 341 343 343 340 341 343 343 343 343 343 344 344 344 339 338 341 341 341 336 335 335 335 336 337 342 343 343 341 338 335 332
333 337 339 341 342 342 341 343 344 343 343 343 343 344 345 343 336 338 340 341 336 335 336 340 341 341 343 343 344 346 344 338 335
337 335 337 338 340 340 341 345 345 344 344 344 343 344 344 345 338 336 338 339 336 335 340 342 345 343 343 342 342 345 346 345 341
336 336 335 338 338 340 342 345 345 346 344 344 344 344 344 345 344 337 337 338 336 339 342 344 345 344 343 342 344 346 345 343 344
334 340 336 335 339 340 341 342 344 345 345 345 345 344 344 345 345 342 335 338 339 340 341 342 343 343 341 341 344 346 344 344 343
333 338 340 338 337 339 341 342 343 343 344 345 344 344 344 344 345 345 339 335 337 338 339 340 342 342 342 342 344 345 345 344 343
334 337 340 341 341 340 341 342 342 343 344 344 345 344 344 344 345 346 343 337 334 336 338 338 340 342 342 343 343 345 344 341 342
333 333 335 337 342 343 343 343 343 343 344 345 344 344 344 345 345 346 345 339 335 335 335 336 336 335 336 337 339 340 340 343 344
337 337 335 336 336 336 340 343 344 344 344 344 345 345 346 345 345 345 346 340 338 336 336 336 336 337 337 338 339 340 346 346 343
339 338 334 338 339 336 335 340 344 343 344 344 344 346 346 345 346 346 346 344 339 338 339 340 340 344 343 343 342 343 345 345 342
335 336 335 336 339 342 344 339 342 344 345 345 345 346 346 346 346 340 345 347 345 344 343 345 348 346 346 348 348 348 349 349 346
332 334 334 336 335 338 344 349 348 346 345 346 346 346 346 346 346 347 346 347 348 349 348 349 348 347 347 349 349 347 347 348 348
326 327 331 332 334 335 334 341 349 350 348 348 348 347 348 347 347 348 346 347 348 349 349 349 350 350 350 350 349 349 349 347 346
324 323 326 330 332 332 333 334 334 339 350 349 349 349 348 348 348 348 347 347 349 349 350 351 350 350 349 348 348 347 346 344 344
322 323 323 325 330 334 333 333 334 335 336 349 351 351 349 348 348 348 348 349 350 350 350 348 347 348 348 348 348 346 343 343 344
320 321 323 323 324 325 330 332 338 334 337 335 339 350 351 350 350 350 349 349 350 350 349 348 349 349 347 347 346 345 344 342 339
319 319 320 322 323 324 324 327 331 336 334 335 336 335 346 349 351 350 351 350 348 350 350 350 348 347 349 346 344 341 340 335 334
320 320 320 320 322 323 324 325 326 330 330 333 334 336 339 344 347 345 345 344 343 345 348 347 346 345 342 340 340 339 337 334 332
320 320 320 320 320 322 323 323 325 327 329 332 333 333 337 344 346 341 336 335 331 341 342 343 342 341 340 337 336 336 336 335 333

GFSFLT1_850_thetae_201.txt.gz
Theta_e
340 344 345 346 345 344 344 343 343 345 344 343 344 344 344 343 341 343 343 343 341 341 340 338 339 335 341 338 331 341 344 343 340
341 343 343 344 344 343 344 344 343 342 344 343 343 344 344 344 341 341 342 342 342 342 339 339 338 333 333 332 333 335 336 337 337
337 337 340 342 342 342 344 343 342 343 343 344 343 343 344 343 343 339 340 341 341 342 337 336 339 337 335 337 341 342 343 341 339
334 339 337 339 340 341 342 343 341 341 343 344 344 343 343 343 344 341 338 340 341 341 335 335 336 336 339 338 342 343 344 345 345
334 337 337 338 338 339 341 342 342 341 343 344 343 343 343 343 344 344 338 337 340 340 335 335 336 339 342 343 343 343 342 345 346
334 337 341 335 341 341 339 340 341 342 344 345 344 344 343 344 344 344 343 336 337 339 336 335 340 343 344 342 342 342 344 346 346
336 338 339 341 340 339 340 341 341 342 343 345 344 344 344 344 343 344 345 340 335 337 336 339 342 344 344 342 342 341 343 346 344
339 339 338 339 337 341 341 341 341 342 342 343 344 345 344 344 344 344 344 345 337 335 337 338 340 341 342 342 341 340 343 343 343
341 340 338 338 339 336 337 342 342 342 342 342 344 344 345 345 344 344 344 345 344 336 334 337 338 339 339 340 340 339 340 342 343
338 338 338 337 338 339 338 336 340 342 343 343 343 344 344 344 344 344 344 345 345 342 336 334 336 337 338 338 337 337 337 338 339
334 335 335 336 336 338 343 343 340 343 343 342 344 345 345 345 345 345 344 345 345 345 342 336 335 336 337 337 336 337 337 338 343
330 330 333 333 335 334 336 342 347 346 343 345 344 345 346 345 345 335 335 335 344 344 343 339 337 336 337 339 340 341 342 343 346
327 326 326 330 332 332 334 334 339 349 347 345 347 347 347 347 347 343 336 344 345 344 346 341 339 340 342 343 346 347 348 347 347
324 325 323 325 330 332 332 332 334 334 345 349 349 348 348 348 348 347 334 341 335 345 347 347 346 345 347 348 348 348 348 346 347
323 321 321 323 325 329 333 332 332 334 335 339 350 348 349 349 349 349 349 347 345 342 348 348 349 349 349 350 348 346 345 346 346
323 323 320 320 322 324 327 331 332 336 333 336 337 352 350 350 349 350 351 351 350 346 348 349 349 349 346 345 346 346 345 346 345
323 323 323 320 319 321 324 324 326 332 334 332 336 336 343 351 351 350 350 351 351 350 349 350 349 347 346 344 345 345 347 346 343
323 323 323 322 320 319 321 323 324 324 332 331 333 334 336 343 351 351 350 350 350 349 348 347 349 348 347 345 344 344 346 344 343
323 323 322 322 321 320 320 321 322 324 325 330 328 332 333 335 342 345 346 345 344 343 340 339 342 345 348 347 347 347 344 341 338
322 322 322 322 321 321 320 320 321 322 324 330 329 329 331 334 339 344 344 343 341 335 333 331 342 345 346 346 344 342 339 338 334

GFSFLT1_850_thetae_207.txt.gz
Theta_e
340 343 343 345 348 349 350 349 351 353 356 356 355 353 353 353 354 352 350 349 350 351 349 346 347 347 349 350 351 350 352 351 350
344 343 344 344 347 348 349 350 351 355 354 356 356 354 355 354 353 352 350 349 349 350 349 347 348 347 349 350 349 350 350 351 351
339 343 344 345 346 348 349 350 351 354 354 357 356 355 357 356 355 353 353 351 350 348 349 348 347 346 349 350 350 350 348 347 345
343 345 347 344 346 347 349 350 350 352 354 355 357 356 355 356 356 355 354 351 351 352 351 349 349 348 347 349 350 341 340 340 345
344 345 347 348 345 348 349 350 351 352 353 354 356 356 355 356 356 356 355 353 351 351 350 350 351 350 350 349 347 344 342 348 345
346 346 346 348 351 350 350 351 352 353 354 354 354 356 356 355 356 356 354 355 352 349 349 348 351 349 348 348 348 347 348 347 349
346 346 346 346 349 352 354 354 353 354 355 355 354 355 355 355 356 356 354 353 353 351 345 346 348 350 348 347 348 348 349 348 348
345 345 344 346 347 348 351 354 354 356 356 356 355 355 355 355 355 355 355 353 353 350 348 341 343 348 348 346 348 348 349 348 349
342 342 343 343 344 346 347 348 351 354 355 357 357 356 357 356 356 354 355 353 353 350 347 343 341 346 346 347 348 348 349 350 351
337 337 337 337 340 341 344 345 346 347 355 352 355 357 358 357 356 355 354 353 353 351 347 345 342 342 346 346 347 349 350 349 350
333 332 333 334 334 336 339 343 344 345 350 352 352 355 355 357 356 355 355 355 354 353 349 348 345 340 342 343 345 346 346 346 346
331 331 331 331 331 332 335 339 343 344 347 353 343 335 341 352 355 356 356 355 354 354 353 353 348 345 340 339 340 346 341 342 343
327 328 328 329 330 330 331 334 337 343 345 347 350 340 340 350 356 354 355 355 355 355 354 354 355 353 350 340 335 335 336 337 342
327 327 328 327 327 329 330 330 333 338 342 345 347 349 350 352 353 354 354 354 354 354 355 356 354 354 354 352 343 341 336 336 337
327 327 327 328 328 327 328 330 331 334 337 340 344 346 347 353 354 353 354 353 354 354 354 354 354 353 354 355 352 340 340 340 338
327 328 328 328 329 329 328 328 330 331 334 336 337 341 345 345 350 355 354 354 353 352 351 352 352 351 352 352 353 357 350 345 345
327 327 327 328 329 329 329 329 329 330 331 333 335 336 343 344 348 351 353 352 353 355 351 351 352 354 352 348 347 349 349 346 344
328 328 327 328 328 329 329 329 329 330 331 332 333 335 337 342 344 347 351 352 353 353 352 351 351 348 344 338 336 336 342 345 347
329 328 328 327 329 329 329 328 328 329 330 331 332 333 334 338 340 341 337 346 346 344 347 349 350 344 342 343 343 340 342 345 347
327 328 328 329 328 329 328 328 328 329 329 330 331 332 333 335 339 338 337 335 341 333 332 332 345 345 337 337 346 343 343 345 345

GFSFLT1_850_thetae_210.txt.gz
Theta_e
340 341 342 345 347 350 351 350 351 351 353 352 353 349 347 347 348 351 349 346 346 347 348 348 351 349 344 346 347 345 350 346 343
341 341 343 344 347 349 351 350 352 352 353 354 353 351 352 349 348 352 351 351 347 347 348 352 348 349 348 346 347 349 345 344 347
342 345 346 344 346 348 349 351 351 352 354 354 354 355 357 352 348 351 351 351 349 346 350 351 348 346 347 345 347 347 347 347 348
345 346 348 348 345 347 348 349 350 352 354 356 356 356 357 357 354 349 350 351 351 349 349 350 348 350 348 348 348 348 347 347 348
347 347 349 351 353 352 349 349 350 351 354 356 357 358 357 357 357 355 354 349 353 350 348 347 349 349 348 347 345 345 348 345 343
348 347 348 349 352 355 355 353 354 353 353 355 356 356 358 357 357 356 356 355 351 351 349 347 350 349 348 348 346 348 345 337 346
347 346 347 348 349 351 353 355 355 354 357 353 355 356 357 358 357 357 357 357 354 352 349 344 344 349 349 348 346 345 344 340 339
345 344 345 345 347 348 349 351 354 355 356 357 356 355 357 357 357 356 357 356 356 354 351 348 342 345 350 350 347 344 346 345 346
340 340 339 340 342 343 346 347 348 350 356 356 357 357 356 358 357 357 356 356 354 355 353 350 349 342 345 350 349 346 347 347 346
336 336 335 336 336 337 339 343 345 347 348 353 355 354 354 355 357 356 355 354 354 355 355 352 349 347 341 344 347 345 347 347 347
334 333 333 333 333 333 333 336 341 345 346 349 351 353 354 354 355 355 355 354 354 355 356 354 351 347 343 340 340 340 345 348 348
330 330 330 330 331 331 332 332 334 337 342 346 349 350 350 353 354 353 352 354 353 354 354 356 354 348 345 342 336 336 338 347 348
327 328 328 329 330 330 329 330 332 333 336 342 345 349 348 348 341 334 336 341 348 351 354 356 355 353 349 345 339 336 336 340 344
328 328 328 328 329 329 329 330 329 331 332 336 341 345 347 344 349 340 335 332 334 338 351 354 355 354 353 352 349 342 336 338 346
328 329 329 330 329 329 329 329 331 329 331 332 336 337 335 340 342 347 348 339 329 344 352 354 355 355 355 354 353 352 347 342 342
328 328 329 329 329 329 329 330 332 331 330 330 332 333 334 335 339 342 342 351 351 350 352 355 355 355 356 354 354 354 352 349 344
328 328 329 329 328 330 329 330 328 330 332 331 329 333 333 334 336 343 346 346 352 353 353 353 354 354 354 354 353 353 352 350 344
329 329 328 329 329 329 328 329 329 328 330 330 331 331 333 334 335 339 341 347 348 352 352 350 351 350 349 349 350 350 351 347 346
328 328 328 328 329 328 328 329 328 328 330 329 329 332 331 333 334 335 342 343 340 340 348 349 347 345 348 349 347 343 342 342 344
327 328 328 328 327 327 328 328 329 328 328 328 329 330 331 331 333 333 336 338 341 337 337 341 340 338 335 335 340 338 335 338 339